• In Hungary
  • List of Countries
  • For 7 days
  • Water Temperature
  • Satellite Maps
  • Weather Map
  • News
  • Weather Widgets
  • user-avatar
    Login

    Hourly Weather Lysinin

    Today, 24 October, Wednesday

    Time Temperature Precipitation Wind Pressure Humidity
    00:00 +7°C° 0.2 mm 9 mps 739 mmHg 72%
    01:00 +6°C° 0.2 mm 9 mps 739 mmHg 70%
    02:00 +6°C° 0.1 mm 9 mps 739 mmHg 70%
    03:00 +5°C° 0.1 mm 9 mps 740 mmHg 69%
    04:00 +5°C° 0.1 mm 9 mps 740 mmHg 68%
    05:00 +4°C° 0.1 mm 8 mps 741 mmHg 67%
    06:00 +4°C° 0.1 mm 7 mps 742 mmHg 65%
    07:00 +3°C° 0.1 mm 7 mps 742 mmHg 63%
    08:00 +4°C° 0 mm 8 mps 743 mmHg 58%
    09:00 +5°C° 0 mm 9 mps 744 mmHg 52%
    10:00 +6°C° 0 mm 10 mps 744 mmHg 46%
    11:00 +6°C° 0 mm 10 mps 745 mmHg 45%
    12:00 +7°C° 0 mm 10 mps 745 mmHg 44%
    13:00 +7°C° 0 mm 10 mps 746 mmHg 43%
    14:00 +7°C° 0 mm 9 mps 747 mmHg 45%
    15:00 +6°C° 0 mm 8 mps 747 mmHg 48%
    16:00 +6°C° 0 mm 7 mps 748 mmHg 50%
    17:00 +5°C° 0 mm 6 mps 748 mmHg 53%
    18:00 +4°C° 0 mm 6 mps 749 mmHg 56%
    19:00 +5°C° 0 mm 5 mps 749 mmHg 59%
    20:00 +5°C° 0 mm 5 mps 749 mmHg 61%
    21:00 +3°C° 0 mm 5 mps 750 mmHg 63%
    22:00 +3°C° 0 mm 5 mps 750 mmHg 65%
    23:00 +3°C° 0 mm 5 mps 750 mmHg 68%

    Tomorrow, 25 October, Thursday

    Time Temperature Precipitation Wind Pressure Humidity
    00:00 +3°C° 0 mm 5 mps 749 mmHg 70%
    01:00 +3°C° 0 mm 5 mps 749 mmHg 73%
    02:00 +3°C° 0.1 mm 5 mps 749 mmHg 75%
    03:00 +3°C° 0.1 mm 5 mps 748 mmHg 77%
    04:00 +3°C° 0.1 mm 5 mps 747 mmHg 79%
    05:00 +4°C° 0.9 mm 6 mps 746 mmHg 83%
    06:00 +5°C° 0.9 mm 6 mps 745 mmHg 87%
    07:00 +7°C° 0.9 mm 6 mps 744 mmHg 91%
    08:00 +8°C° 0.5 mm 7 mps 744 mmHg 89%
    09:00 +9°C° 0.5 mm 8 mps 743 mmHg 86%
    10:00 +10°C° 0.5 mm 9 mps 743 mmHg 84%
    11:00 +10°C° 0.2 mm 9 mps 743 mmHg 81%
    12:00 +10°C° 0.2 mm 9 mps 743 mmHg 79%
    13:00 +10°C° 0.2 mm 9 mps 743 mmHg 76%
    14:00 +10°C° 0.1 mm 9 mps 743 mmHg 74%
    15:00 +8°C° 0.1 mm 9 mps 744 mmHg 72%
    16:00 +8°C° 0.1 mm 9 mps 744 mmHg 69%
    17:00 +7°C° 0 mm 8 mps 744 mmHg 72%
    18:00 +6°C° 0 mm 7 mps 745 mmHg 74%
    19:00 +6°C° 0 mm 7 mps 745 mmHg 77%
    20:00 +7°C° 0 mm 6 mps 745 mmHg 78%
    21:00 +7°C° 0 mm 6 mps 746 mmHg 79%
    22:00 +5°C° 0 mm 6 mps 746 mmHg 81%
    23:00 +5°C° 0 mm 6 mps 746 mmHg 82%

    Day after tomorrow, 26 October, Friday

    Time Temperature Precipitation Wind Pressure Humidity
    00:00 +5°C° 0 mm 6 mps 746 mmHg 83%
    01:00 +5°C° 0 mm 6 mps 746 mmHg 84%
    02:00 +5°C° 0 mm 6 mps 746 mmHg 85%
    03:00 +5°C° 0 mm 5 mps 746 mmHg 86%
    04:00 +5°C° 0 mm 5 mps 746 mmHg 86%
    05:00 +5°C° 0 mm 5 mps 746 mmHg 86%
    06:00 +5°C° 0 mm 5 mps 746 mmHg 85%
    07:00 +5°C° 0 mm 5 mps 746 mmHg 84%
    08:00 +6°C° 0 mm 5 mps 746 mmHg 81%
    09:00 +7°C° 0 mm 5 mps 745 mmHg 77%
    10:00 +8°C° 0 mm 5 mps 745 mmHg 74%
    11:00 +8°C° 0.1 mm 6 mps 745 mmHg 74%
    12:00 +9°C° 0.1 mm 6 mps 744 mmHg 75%
    13:00 +10°C° 0.1 mm 6 mps 744 mmHg 76%
    14:00 +10°C° 0.4 mm 6 mps 743 mmHg 78%
    15:00 +10°C° 0.4 mm 6 mps 742 mmHg 79%
    16:00 +10°C° 0.4 mm 6 mps 742 mmHg 81%
    17:00 +10°C° 0.2 mm 6 mps 741 mmHg 81%
    18:00 +10°C° 0.2 mm 6 mps 741 mmHg 81%
    19:00 +9°C° 0.2 mm 7 mps 741 mmHg 81%
    20:00 +9°C° 0.1 mm 7 mps 740 mmHg 80%
    21:00 +9°C° 0.1 mm 8 mps 740 mmHg 79%
    22:00 +7°C° 0.1 mm 8 mps 740 mmHg 78%
    23:00 +7°C° 0.1 mm 8 mps 740 mmHg 76%

    27 October, Saturday

    Time Temperature Precipitation Wind Pressure Humidity
    00:00 +6°C° 0.1 mm 8 mps 740 mmHg 75%
    01:00 +5°C° 0.1 mm 8 mps 741 mmHg 74%
    02:00 +5°C° 0 mm 8 mps 741 mmHg 74%
    03:00 +5°C° 0 mm 8 mps 741 mmHg 75%
    04:00 +5°C° 0 mm 9 mps 741 mmHg 76%
    05:00 +4°C° 0.1 mm 8 mps 742 mmHg 75%
    06:00 +4°C° 0.1 mm 8 mps 743 mmHg 75%
    07:00 +4°C° 0.1 mm 8 mps 743 mmHg 75%
    08:00 +5°C° 0 mm 7 mps 744 mmHg 73%
    09:00 +5°C° 0 mm 7 mps 745 mmHg 71%
    10:00 +5°C° 0 mm 7 mps 746 mmHg 69%
    11:00 +5°C° 0 mm 6 mps 746 mmHg 67%
    12:00 +7°C° 0 mm 6 mps 747 mmHg 65%
    13:00 +7°C° 0 mm 5 mps 747 mmHg 62%
    14:00 +7°C° 0 mm 4 mps 747 mmHg 64%
    15:00 +7°C° 0 mm 3 mps 748 mmHg 65%
    16:00 +7°C° 0 mm 2 mps 748 mmHg 66%
    17:00 +6°C° 0 mm 2 mps 749 mmHg 68%
    18:00 +7°C° 0 mm 1 mps 749 mmHg 71%
    19:00 +6°C° 0 mm 1 mps 749 mmHg 73%
    20:00 +6°C° 0 mm 1 mps 750 mmHg 73%
    21:00 +6°C° 0 mm 1 mps 750 mmHg 74%
    22:00 +6°C° 0 mm 1 mps 750 mmHg 74%
    23:00 +6°C° 0 mm 1 mps 751 mmHg 74%

    28 October, Sunday

    Time Temperature Precipitation Wind Pressure Humidity
    00:00 +5°C° 0 mm 1 mps 751 mmHg 75%
    01:00 +5°C° 0 mm 1 mps 751 mmHg 75%
    02:00 +5°C° 0 mm 1 mps 751 mmHg 76%
    03:00 +4°C° 0 mm 2 mps 751 mmHg 76%
    04:00 +4°C° 0 mm 2 mps 751 mmHg 77%
    05:00 +4°C° 0 mm 2 mps 752 mmHg 77%
    06:00 +4°C° 0 mm 2 mps 752 mmHg 77%
    07:00 +3°C° 0 mm 2 mps 752 mmHg 78%
    08:00 +4°C° 0 mm 2 mps 752 mmHg 74%
    09:00 +4°C° 0 mm 3 mps 753 mmHg 70%
    10:00 +5°C° 0 mm 3 mps 753 mmHg 66%
    11:00 +5°C° 0.1 mm 3 mps 753 mmHg 65%
    12:00 +7°C° 0.1 mm 3 mps 753 mmHg 64%
    13:00 +7°C° 0.1 mm 3 mps 753 mmHg 63%
    14:00 +5°C° 0.1 mm 3 mps 753 mmHg 64%
    15:00 +5°C° 0.1 mm 3 mps 753 mmHg 66%
    16:00 +5°C° 0.1 mm 3 mps 753 mmHg 68%
    17:00 +5°C° 0.1 mm 4 mps 754 mmHg 69%
    18:00 +4°C° 0.1 mm 4 mps 754 mmHg 71%
    19:00 +4°C° 0.1 mm 4 mps 754 mmHg 72%
    20:00 +4°C° 0 mm 4 mps 754 mmHg 73%
    21:00 +4°C° 0 mm 4 mps 754 mmHg 74%
    22:00 +3°C° 0 mm 5 mps 754 mmHg 75%
    23:00 +2°C° 0 mm 5 mps 754 mmHg 75%

    29 October, Monday

    Time Temperature Precipitation Wind Pressure Humidity
    00:00 +2°C° 0 mm 5 mps 754 mmHg 76%
    01:00 +2°C° 0 mm 6 mps 753 mmHg 77%
    02:00 +2°C° 0.1 mm 6 mps 753 mmHg 76%
    03:00 +2°C° 0.1 mm 6 mps 753 mmHg 75%
    04:00 +2°C° 0.1 mm 7 mps 753 mmHg 75%
    05:00 +2°C° 0.2 mm 7 mps 753 mmHg 75%
    06:00 +2°C° 0.2 mm 7 mps 752 mmHg 75%
    07:00 +2°C° 0.2 mm 7 mps 752 mmHg 75%
    08:00 +1°C° 0.3 mm 8 mps 752 mmHg 74%
    09:00 +2°C° 0.3 mm 8 mps 752 mmHg 73%
    10:00 +2°C° 0.3 mm 8 mps 753 mmHg 72%
    11:00 +2°C° 0.3 mm 8 mps 752 mmHg 72%
    12:00 +2°C° 0.3 mm 8 mps 752 mmHg 71%
    13:00 +2°C° 0.3 mm 8 mps 752 mmHg 71%
    14:00 +2°C° 0.2 mm 8 mps 752 mmHg 71%
    15:00 +2°C° 0.2 mm 8 mps 752 mmHg 71%
    16:00 +1°C° 0.2 mm 8 mps 752 mmHg 72%
    17:00 +1°C° 0.1 mm 8 mps 752 mmHg 72%
    18:00 +1°C° 0.1 mm 8 mps 753 mmHg 73%
    19:00 +1°C° 0.1 mm 8 mps 753 mmHg 73%
    20:00 +1°C° 0 mm 8 mps 753 mmHg 73%
    21:00 0°C° 0 mm 8 mps 754 mmHg 73%
    22:00 0°C° 0 mm 8 mps 754 mmHg 73%
    23:00 0°C° 0 mm 8 mps 754 mmHg 73%

    30 October, Tuesday

    Time Temperature Precipitation Wind Pressure Humidity
    00:00 0°C° 0 mm 8 mps 754 mmHg 73%
    01:00 -1°C° 0 mm 8 mps 754 mmHg 73%
    02:00 -1°C° 0 mm 8 mps 754 mmHg 73%
    03:00 -1°C° 0 mm 8 mps 754 mmHg 73%
    04:00 -1°C° 0 mm 8 mps 754 mmHg 74%
    05:00 -1°C° 0 mm 8 mps 754 mmHg 73%
    06:00 -2°C° 0 mm 8 mps 754 mmHg 73%
    07:00 -2°C° 0 mm 8 mps 754 mmHg 73%
    08:00 -1°C° 0 mm 8 mps 754 mmHg 72%
    09:00 -1°C° 0 mm 9 mps 754 mmHg 71%
    10:00 -1°C° 0 mm 9 mps 754 mmHg 70%
    11:00 0°C° 0 mm 9 mps 754 mmHg 70%
    12:00 0°C° 0 mm 9 mps 753 mmHg 70%
    13:00 0°C° 0 mm 9 mps 753 mmHg 70%
    14:00 0°C° 0.1 mm 9 mps 753 mmHg 70%
    15:00 0°C° 0.1 mm 9 mps 752 mmHg 71%
    16:00 0°C° 0.1 mm 9 mps 752 mmHg 71%
    17:00 0°C° 0.2 mm 10 mps 752 mmHg 72%
    18:00 0°C° 0.2 mm 10 mps 752 mmHg 74%
    19:00 -2°C° 0.2 mm 10 mps 751 mmHg 75%
    20:00 -2°C° 0 mm 10 mps 751 mmHg 76%
    21:00 -2°C° 0 mm 10 mps 751 mmHg 76%
    22:00 -2°C° 0 mm 11 mps 750 mmHg 77%
    23:00 -2°C° 0.8 mm 11 mps 750 mmHg 79%
    Show more